Retour au catalogue

STARLINK-36196

ActifCommunicationsVLEO
NORAD 67107·PAYLOAD·🇺🇸 United States

Lancé Dec 15, 2025 depuis Cape Canaveral Space Force Station

Loading…

Prochains Passages (prochaines 24 heures)

TLE

FraisSource: CelesTrak SupGP

Époque: Sep 15, 2026, 03:33 UTC

1 67107C 25299F   26258.14840278  .00007044  00000+0  25523-3 0  2587
2 67107  43.0030 179.1115 0001266 280.5086 330.4577 15.27563735    16

Suivez STARLINK-36196 en temps réel avec AllMySat

Download on the App Store